Location: ????
(32.1228°N, 34.8377°E)
Time: 04:05:13
(UTC+00:00)

Chandra Rocket (1) - Pass Details

Date: 21 September 2020
Orbit: 337 x 11014 km, 28.4° (Epoch: 23 October)

Event Time Altitude Azimuth Distance (km) Brightness Sun altitude
Exits shadow 01:45:58 27° 269° (W) 4,445 5.8 -22.2°
Maximum altitude 01:54:19 53° 208° (SSW) 1,835 4.1 -20.5°
Drops below altitude 10° 01:59:46 10° 131° (SE) 2,436 5.6 -19.4°
Sets 02:01:21 0° 125° (SE) 3,015 6.2 -19.1°
